Overview Statistics Trail Chart Weather Telemetry Raw packets
 

This is the latest recevied weather packets stored in our database for station/object K1TTC. If no packets are shown the sender has not sent any weather packets the latest 10 day(s).

<< 21 22 23 24 25 26 27 >>
Time Temp. Humidity Pressure Rain* Wind** Luminosity Snow
1788300876 18.33° C 83% 1020.6 hPa 0 mm - 9 W/m² -
1788300274 18.33° C 84% 1020.5 hPa 0 mm - 23 W/m² -
1788299677 18.89° C 84% 1020.4 hPa 0 mm - 23 W/m² -
1788299070 18.33° C 84% 1020.2 hPa 0 mm - 51 W/m² -
1788298565 18.33° C 84% 1020.3 hPa 0 mm - 62 W/m² -
1788297870 18.33° C 84% 1020.2 hPa 0 mm - 47 W/m² -
1788297271 18.33° C 84% 1020.1 hPa 0.25 mm - 46 W/m² -
1788296672 18.33° C 84% 1020.1 hPa 0.25 mm - 46 W/m² -
1788296072 18.89° C 84% 1020 hPa 0.25 mm - 40 W/m² -
1788295470 18.89° C 84% 1019.9 hPa 0.25 mm - 28 W/m² -
1788294873 19.44° C 84% 1019.8 hPa 0.25 mm - 21 W/m² -
1788294271 19.44° C 84% 1019.6 hPa 0.25 mm - 19 W/m² -
1788293672 19.44° C 84% 1019.5 hPa 0 mm - 39 W/m² -
1788293072 19.44° C 84% 1019.5 hPa 0 mm - 58 W/m² -
1788292472 19.44° C 84% 1019.6 hPa 0.25 mm - 90 W/m² -
1788291870 19.44° C 84% 1019.6 hPa 0.25 mm - 113 W/m² -
1788291270 19.44° C 84% 1019.7 hPa 0.25 mm - 105 W/m² -
1788290670 19.44° C 84% 1019.6 hPa 0.25 mm - 130 W/m² -
1788290070 19.44° C 84% 1019.6 hPa 0.25 mm - 137 W/m² -
1788289472 19.44° C 84% 1019.7 hPa 0.25 mm - 200 W/m² -
1788288869 19.44° C 84% 1019.6 hPa 0 mm - 127 W/m² -
1788288271 18.89° C 84% 1019.8 hPa 0 mm - 74 W/m² -
1788287671 18.89° C 84% 1019.8 hPa 0.25 mm - 137 W/m² -
1788287072 18.89° C 84% 1019.7 hPa 0.25 mm - 185 W/m² -
1788286548 18.89° C 84% 1019.7 hPa 0.25 mm - 123 W/m² -

* Rain latest hour (hover to see other rain measurements)
** Current wind speed in m/s (hover to see current wind gust speed)